Location: Gleizolles
(44.4833°N, 6.7667°E)
Time: 23:33:56
(UTC+00:00)

Vanguard 2 Rocket - Pass Details

Date: 22 June 2024
Orbit: 555 x 3302 km, 32.9° (Epoch: 24 July)

Event Time Altitude Azimuth Distance (km) Brightness Sun altitude
Rises 04:50:19 0° 262° (W) 7,273 10.9 8.7°
Reaches altitude 10° 04:55:25 10° 258° (WSW) 6,250 10.6 9.6°
Maximum altitude 05:14:05 54° 189° (S) 3,181 9.6 12.6°
Drops below altitude 10° 05:26:52 10° 117° (ESE) 4,430 11.2 14.8°
Sets 05:29:48 0° 113° (ESE) 5,111 11.5 15.3°
